Home   Weather   Lausanne   Past weeks

Flag for Switzerland Past Weather in Lausanne, Vaud, Switzerland — Yesterday and Last 2 Weeks

Now
71 °F

Mild.


Feels Like: 75 °F
Forecast: 62 / 78 °F
Wind: 6 mph from South

Location: Aigle

Current Time: May 29, 2017 at 11:05:29 pm

Latest Report: May 29, 2017 at 10:00 pm


Visibility: N/A

Pressure: 29.99 "Hg

Humidity: 67%

Dew Point: 59 °F

Location of LausanneLocation

Past Weather in Lausanne — Graph

°F

Lausanne Temperature Yesterday

Maximum temperature yesterday: 81 °F (at 5:00 pm)
Minimum temperature yesterday: 57 °F (at 6:00 am)
Average temperature yesterday: 70 °F

High & Low Weather Summary for the Past Weeks

 TemperatureHumidityPressure
High81 °F (May 28, 5:00 pm)100% (May 20, 5:00 am)30.41 "Hg (May 20, 5:00 am)
Low40 °F (May 20, 5:00 am)37% (May 22, 7:00 pm)29.79 "Hg (May 18, 7:00 pm)
Average62 °F70%30.11 "Hg
* Reported May 14 9:00 pm — May 29 9:00 pm, Lausanne. Weather by CustomWeather, © 2017

Note: Actual official high and low records may vary slightly from our data, if they occured in-between our weather recording intervals... More about our weather records

Advertising

Lausanne Weather History for the Previous 24 Hours

Scroll right to see more
 ConditionsComfort  
Time TempWeatherWind HumidityBarometerVisibility
9:00 pm
Mon, May 29
72 °FMild.3 mph66%29.96 "HgN/A
8:00 pm71 °FOvercast.6 mph71%29.94 "Hg22 mi
7:00 pm73 °FMild.6 mph66%29.93 "HgN/A
6:00 pm73 °FMild.3 mph70%29.93 "HgN/A
5:00 pm75 °FScattered clouds.6 mph51%29.92 "Hg19 mi
4:00 pm75 °FMild.7 mph47%29.92 "HgN/A
3:00 pm80 °FPleasantly warm.14 mph40%29.90 "HgN/A
2:00 pm81 °FSunny.10 mph40%29.92 "Hg28 mi
1:00 pm78 °FWarm.8 mph45%29.94 "HgN/A
11:00 am74 °FPassing clouds.6 mph49%29.98 "Hg22 mi
10:00 am74 °FMild.2 mph53%29.99 "HgN/A
9:00 am70 °FMild.2 mph57%30.01 "HgN/A
8:00 am66 °FPassing clouds.1 mph75%30.03 "Hg19 mi
7:00 am58 °FCool.No wind89%30.06 "HgN/A
6:00 am57 °FCool.1 mph88%30.05 "HgN/A
5:00 am57 °FPassing clouds.2 mph88%30.06 "Hg16 mi
4:00 am59 °FCool.3 mph87%30.05 "HgN/A
3:00 am61 °FCool.3 mph83%30.05 "HgN/A
2:00 am60 °FCool.2 mph82%30.06 "HgN/A
1:00 am65 °FMild.1 mph72%30.07 "HgN/A
12:00 am64 °FMild.6 mph80%30.06 "HgN/A
11:00 pm
Sun, May 28
65 °FMild.7 mph77%30.07 "HgN/A
Weather by CustomWeather, © 2017

See weather overviewHow to use our weather pages